Other Public Products
Issued by NWS Grand Forks, ND

Home | Current Version | Previous Version | Graphics & Text | Print | Product List | Glossary On
Versions: 1 2 3 4 5 6 7 8 9 10 11 12 13 14 15 16 17 18 19 20 21 22 23 24 25 26 27 28 29 30 31 32 33 34 35 36 37 38 39 40 41 42 43 44 45 46 47 48 49 50
203
FPUS83 KFGF 191210
OPUFGF
PRAIRIE TO PINES WEATHER ROUNDUP
NATIONAL WEATHER SERVICE EASTERN NORTH DAKOTA/GRAND FORKS ND
700 AM CDT THU APR 19 2018

 **SATELLITE DATA USED TO AUGMENT SKY COVER AT AUTOMATED STATIONS**
 *****  WEATHER ACROSS EASTERN NORTH DAKOTA  *****

CITY           SKY/WX    TMP DP  RH WIND       PRES   REMARKS
GRAND FORKS    MOCLDY    28  27  96 S5        30.36R WCI  23
6HR MIN TEMP:  27; 6HR MAX TEMP:  33;

GRND FORKS AFB FAIR      28  27  96 W3        30.37R
GRND FORKS NWS NOT AVBL
BUXTON           N/A     35  27  71 CALM        N/A
DEVILS LAKE    FAIR      27  26  96 W7        30.38R WCI  19
6HR MIN TEMP:  26; 6HR MAX TEMP:  34;

FARGO          FAIR      29  28  96 CALM      30.37R
6HR MIN TEMP:  27; 6HR MAX TEMP:  34;

WAHPETON ARPT  FAIR      30  28  93 SE3       30.39R
$$

 *****  WEATHER ACROSS CENTRAL AND WESTERN NORTH DAKOTA  *****

CITY           SKY/WX    TMP DP  RH WIND       PRES   REMARKS
JAMESTOWN      FAIR      27  26  96 CALM      30.37R
6HR MIN TEMP:  26; 6HR MAX TEMP:  34;

BISMARCK       FAIR      25  25 100 CALM      30.40R FOG
6HR MIN TEMP:  22; 6HR MAX TEMP:  32;

MINOT          CLOUDY    35  33  92 W8        30.39R FOG
6HR MIN TEMP:  33; 6HR MAX TEMP:  36;

MINOT AFB      CLOUDY    34  33  99 W8        30.38R FOG
6HR MIN TEMP:  29; 6HR MAX TEMP:  36;

GARRISON         N/A     33  32  96 N10       30.38S WCI  25
6HR MIN TEMP:  28; 6HR MAX TEMP:  33;

WILLISTON      FOG       34  33  96 N5        30.38R VSB 1/2
6HR MIN TEMP:  33; 6HR MAX TEMP:  34;

DICKINSON      FOG       24  22  91 E3        30.32S VSB<1/4
6HR MIN TEMP:  22; 6HR MAX TEMP:  33; 6HR PCP: TRACE;

HETTINGER      FAIR      23  21  92 CALM      30.35R
6HR MIN TEMP:  21; 6HR MAX TEMP:  30;

$$

 *****  OTHER OBSERVATIONS NORTHEAST NORTH DAKOTA  *****

CITY           SKY/WX    TMP DP  RH WIND       PRES   REMARKS
WALHALLA       FAIR      30  30 100 CALM      30.36R
LANGDON        FAIR      30  30 100 CALM      30.36R
CAVALIER         N/A     28  28 100 CALM      30.36R
GRAFTON        FAIR      28  28 100 CALM      30.39R
CANDO          FAIR      25  25 100 W5        30.39R WCI  19
FORT TOTTEN      N/A     28  26  90 CALM      29.95
ROLLA          FAIR      32  32 100 NW7       30.36R
RUGBY          FOG       28  28 100 CALM      30.37R VSB 1
 ***** THE ABOVE OBSERVATIONS ARE NON NWS ARE NOT QUALITY
        CONTROLLED AND MAY MIS-REPORT RAIN FOR SNOW...
$$

 *****  OTHER OBSERVATIONS SOUTHEAST NORTH DAKOTA *****

CITY           SKY/WX    TMP DP  RH WIND       PRES   REMARKS
COOPERSTOWN    FAIR      30  30 100 W6        30.38R WCI  24
VALLEY CITY    FAIR      28  28 100 W9        30.39R WCI  20
OAKES            N/A     27  27 100 W6        30.39R WCI  20
GWINNER          N/A     30  28  93 W8        30.38R WCI  23
SHEYENNE NWR     N/A     24  24 100 CALM      29.95S
BUFFALO          N/A     32  22  67 CALM        N/A
WYNDMERE       NOT AVBL
 ***** THE ABOVE OBSERVATIONS ARE NON NWS ARE NOT QUALITY
       CONTROLLED AND MAY MIS-REPORT RAIN FOR SNOW...
$$

  *****  WEATHER ACROSS NORTHERN MINNESOTA  *****

CITY           SKY/WX    TMP DP  RH WIND       PRES   REMARKS
FLAG ISLAND    FAIR      25  18  74 CALM      30.37R
WARROAD        FAIR      27  21  80 CALM      30.37S
ROSEAU         FAIR      30  25  80 CALM      30.37R
HALLOCK        FAIR      28  27  93 CALM      30.37R
THF RVR FALLS  FAIR      29  25  85 CALM      30.38R
6HR MIN TEMP:  28; 6HR MAX TEMP:  34;

HALSTAD        NOT AVBL
FOSSTON        FAIR      25  16  68 CALM      30.38R
BAUDETTE       FAIR      25  22  88 CALM      30.37R
6HR MIN TEMP:  23; 6HR MAX TEMP:  28;

WASKISH        FAIR      21  19  93 CALM      30.38R
CROOKSTON      FAIR      30  27  86 SE3       30.38S
$$
  *****  WEATHER ACROSS CENTRAL AND WEST MINNESOTA  *****

CITY           SKY/WX    TMP DP  RH WIND       PRES   REMARKS
BEMIDJI        FAIR      24  18  79 CALM      30.37R
6HR MIN TEMP:  22; 6HR MAX TEMP:  31;

PARK RAPIDS    FAIR      25  19  78 CALM      30.37R
6HR MIN TEMP:  25; 6HR MAX TEMP:  33;

WADENA         FAIR      23  21  93 CALM      30.38R
DETROIT LAKES  FAIR      30  23  74 CALM      30.39R
MOORHEAD       FAIR      28  27  93 CALM      30.39R
FERGUS FALLS   FAIR      28  25  86 S3        30.39R
ELBOW LAKE     FAIR      30  28  92 E6        30.39R WCI  24
6HR MIN TEMP:  27; 6HR MAX TEMP:  34;

MORRIS MN      FAIR      30  28  93 S5        30.39R
STAPLES        FAIR      23  18  80 CALM      30.38R
WHEATON        FAIR      30  27  86 S5        30.42R
$$
  *****  WEATHER ELSEWHERE ACROSS MINNESOTA  *****

CITY           SKY/WX    TMP DP  RH WIND       PRES   REMARKS
DULUTH         FAIR      22  11  62 NW6       30.35R WCI  14
6HR MIN TEMP:  20; 6HR MAX TEMP:  31;

INTRNTL FALLS  FAIR      20  18  92 CALM      30.37R
6HR MIN TEMP:  18; 6HR MAX TEMP:  27;

ELY            FAIR      16  10  79 CALM      30.36R
CLOQUET        FAIR      27  10  50 NW6       30.36R WCI  20
BRAINERD       FAIR      24  18  77 CALM      30.39R
6HR MIN TEMP:  23; 6HR MAX TEMP:  31;

HIBBING        FAIR      20  17  88 CALM      30.36R
6HR MIN TEMP:  17; 6HR MAX TEMP:  23;

ALEXANDRIA     FAIR      32  19  58 SW7       30.39R
6HR MIN TEMP:  28; 6HR MAX TEMP:  36;

SAINT CLOUD    FAIR      25  20  81 W3        30.40R
6HR MIN TEMP:  25; 6HR MAX TEMP:  30;

MINNEAPOLIS    FAIR      29  17  61 NW3       30.40R
6HR MIN TEMP:  25; 6HR MAX TEMP:  33;

$$

  *****  WEATHER ACROSS SOUTH DAKOTA  *****

CITY           SKY/WX    TMP DP  RH WIND       PRES   REMARKS
SIOUX FALLS    FAIR      24  20  84 NE6       30.40R WCI  17
6HR MIN TEMP:  23; 6HR MAX TEMP:  34;

BROOKINGS      FAIR      24  22  91 CALM      30.40R
WATERTOWN      FAIR      26  25  96 SE5       30.38R WCI  20
6HR MIN TEMP:  25; 6HR MAX TEMP:  32;

HURON          FAIR      24  23  96 SW5       30.41R WCI  18
6HR MIN TEMP:  23; 6HR MAX TEMP:  32;

SISSETON       NOT AVBL
ABERDEEN       FAIR      23  21  92 SW5       30.40R FOG     WCI  17
6HR MIN TEMP:  22; 6HR MAX TEMP:  31;

MITCHELL       FAIR      27  25  92 CALM      30.42R
PIERRE         FAIR      24  23  96 CALM      30.39R
6HR MIN TEMP:  24; 6HR MAX TEMP:  34;

MOBRIDGE       FAIR      26  22  84 CALM      30.37R
RAPID CITY     FAIR      29  27  92 CALM      30.32F
6HR MIN TEMP:  27; 6HR MAX TEMP:  35;

$$

  *****  SOME WEATHER IN NEARBY STATES *****

CITY           SKY/WX    TMP DP  RH WIND       PRES   REMARKS
GLASGOW MT     FOG       31  30  96 SE15      30.30S VSB 1   WCI  20
6HR MIN TEMP:  31; 6HR MAX TEMP:  38;

GREAT FALLS MT FAIR      30  26  85 SW3       30.14R
6HR MIN TEMP:  28; 6HR MAX TEMP:  38;

CHEYENNE WY    FAIR      30  17  58 SE10      30.26S WCI  21
6HR MIN TEMP:  26; 6HR MAX TEMP:  34;

SCOTTSBLUFF NE FAIR      29  28  96 E9        30.32R WCI  20
6HR MIN TEMP:  28; 6HR MAX TEMP:  36;

OMAHA NE       FAIR      28  25  88 NW5       30.40R WCI  23
6HR MIN TEMP:  26; 6HR MAX TEMP:  35;

DES MOINES IA  FAIR      33  27  78 N8        30.34R
6HR MIN TEMP:  31; 6HR MAX TEMP:  34;

DAVENPORT IA   FAIR      30  28  92 NW8       30.31R WCI  22
6HR MIN TEMP:  30; 6HR MAX TEMP:  32;

CHICAGO IL     FAIR      33  28  81 N10       30.19R WCI  25
6HR MIN TEMP:  31; 6HR MAX TEMP:  34;

EAU CLAIRE WI  FAIR      23  16  74 CALM      30.34R
6HR MIN TEMP:  20; 6HR MAX TEMP:  32;

LA CROSSE WI   FAIR      26  23  88 N6        30.36R WCI  19
6HR MIN TEMP:  21; 6HR MAX TEMP:  31;

$$

  *****  SOME NATIONAL WEATHER *****

CITY           SKY/WX    TMP DP  RH WIND       PRES   REMA



USA.gov is the U.S. government's official web portal to all federal, state and local government web resources and services.